Regional Weather Roundup
Issued by NWS Sterling, VA

Home | Current Version | Previous Version | Text Only | Print | Product List | Glossary Off
Versions: 1 2 3 4 5 6 7 8 9 10 11 12 13 14 15 16 17 18 19 20 21 22 23 24 25 26 27

000
ASUS41 KLWX 172011
RWRLWX

REGIONAL WEATHER ROUNDUP
NATIONAL WEATHER SERVICE BALTIMORE MD/WASHINGTON DC
300 PM EST FRI NOV 17 2017

Note: "FAIR" indicates few or no clouds below 12,000 feet
with no significant weather and/or obstructions to visibility.
 TC=TEMPERATURE CELSIUS

 * =Non NWS site. Station does not report precipitation (e.g. rain,
    snow, etc.), thunder, or fog.

DCZ001-MDZ009-015-VAZ040>042-051-053>054-172100-
WASHINGTON METRO

CITY           SKY/WX    TMP DP  RH WIND       PRES   REMARKS
WASHINGTON NAT PTSUNNY   52  27  38 NW9       30.16F
DULLES         PTSUNNY   51  27  39 W8        30.16F
ANDREWS AFB    SUNNY     51  26  37 W9        30.13F
FT BELVOIR     SUNNY     53  26  35 NW7       30.16S
QUANTICO       CLOUDY    53  27  36 VRB5      30.17F
COLLEGE PARK*  SUNNY     52  26  36 W5        30.15S
LEESBURG*      SUNNY     52  30  43 N6        30.16F
MANASSAS*      CLOUDY    52  28  39 W9        30.17S
GAITHERSBURG*  SUNNY     49  27  42 NW8       30.15F

$$

MDZ006>007-011-014-172100-
BALTIMORE METRO

CITY           SKY/WX    TMP DP  RH WIND       PRES   REMARKS
BWI AIRPORT    MOSUNNY   52  25  35 NW8       30.14S
MD SCIENCE CTR   N/A     52  25  35 MISG      30.14F
MARTIN STATE   MOSUNNY   52  28  40 W10       30.15F
ANNAPOLIS      SUNNY     53  32  44 NW9       30.14S
FORT MEADE*    SUNNY     52  27  37 W10       30.17S

$$

MDZ012-015-019>023-172100-
MARYLAND EASTERN SHORE

CITY           SKY/WX    TMP DP  RH WIND       PRES   REMARKS
OCEAN CITY     SUNNY     52  30  43 N12       30.12F
SALISBURY      SUNNY     51  30  44 NW10      30.13S
CAMBRIDGE*     SUNNY     50  28  43 NW7       30.14F
EASTON*        MOSUNNY   52  27  37 NW9       30.18S

$$

MDZ017>025-172100-
SOUTHERN MARYLAND

CITY           SKY/WX    TMP DP  RH WIND       PRES   REMARKS
PATUXENT RIVER MOSUNNY   53  28  38 N12       30.14S
ST INIGOES     SUNNY     51  33  50 W12       30.14S
LEONARDTOWN*   SUNNY     52  27  37 W6        30.16S

$$

MDZ003>005-172100-
NORTH CENTRAL MARYLAND

CITY           SKY/WX    TMP DP  RH WIND       PRES   REMARKS
FREDERICK*     SUNNY     52  21  30 NW7       30.17F
HAGERSTOWN APT CLOUDY    50  25  37 NW8       30.14F
WESTMINSTER*   SUNNY     48  27  43 W7        30.12F

$$

MDZ501>502-172100-
WESTERN MARYLAND

CITY           SKY/WX    TMP DP  RH WIND       PRES   REMARKS
OAKLAND*       SUNNY     36  27  69 CALM      30.08S
CUMBERLAND*    SUNNY     54  27  35 CALM      30.17F

$$

VAZ025>031-172100-
SHENANDOAH VALLEY

CITY           SKY/WX    TMP DP  RH WIND       PRES   REMARKS
WINCHESTER*    MOSUNNY   46  28  49 W6        30.14F
FRONT ROYAL*   MOSUNNY   52  28  40 CALM      30.14F
LURAY*         SUNNY     52  30  43 S6        30.15F
NEW MARKET*    SUNNY     51  25  36 S3        30.14F
STAUNTON*      SUNNY     50  28  43 CALM      30.16F
WAYNESBORO*    MOSUNNY   52  22  30 CALM      30.14F

$$

WVZ021-048>050-054>055-172100-
EASTERN WEST VIRGINIA PANHANDLE

CITY           SKY/WX    TMP DP  RH WIND       PRES   REMARKS
MARTINSBURG    CLOUDY    52  24  33 W5        30.14F
PETERSBURG*    SUNNY     52  28  39 CALM      30.13F

$$

VAZ036>039-050-172100-
CENTRAL FOOTHILLS

CITY           SKY/WX    TMP DP  RH WIND       PRES   REMARKS
CHARLOTTESVILL SUNNY     57  23  26 W3        30.14F
CULPEPER*      CLOUDY    56  21  25 CALM      30.17S
ORANGE*        MOSUNNY   54  28  37 CALM      30.16F
GORDONSVILLE*  MOSUNNY   56  27  33 S5        30.15S
WARRENTON*     NOT AVBL

$$

VAZ055>057-172100-
NORTH AND CENTRAL PIEDMONT

CITY           SKY/WX    TMP DP  RH WIND       PRES   REMARKS
FREDERICKSBRG* PTSUNNY   55  29  37 NW9       30.16S
STAFFORD*      CLOUDY    54  27  35 NW10      30.20S

$$

NCZ024-NYZ072-PAZ021-071-VAZ022-071-172100-
OTHER REGIONAL OBSERVATIONS

CITY           SKY/WX    TMP DP  RH WIND       PRES   REMARKS
NEW YORK CITY  SUNNY     47  17  30 VRB6      30.09R
PHILADELPHIA   MOSUNNY   50  21  32 NW12G21   30.11S
PITTSBURGH     CLOUDY    42  29  59 E6        30.13F
ROANOKE        MOSUNNY   54  26  34 CALM      30.16F
RICHMOND       CLOUDY    53  28  38 N8        30.16F
RALEIGH        PTSUNNY   56  30  37 VRB6      30.16F

$$

ANZ530>537-172100-
MARINE OBSERVATIONS

STATION/POSITION TIME  TEMP    WIND        PRES
                       AIR SEA DIR/SP/G
                 (UTC) (F)     (DEG/KT/KT) (MB)
THOMAS PT LIGHT  2000   51 54  290/  9/ 11   N/A

$$





USA.gov is the U.S. government's official web portal to all federal, state and local government web resources and services.